Location: Starlight Observatory
(38.4029°N, 85.8936°W)
Time: 20:13:10
(UTC-04:00)

Amateur Radio Satellites - All Passes

Search period start: 16 October 2017 19:43
Search period end: 17 October 2017 19:43
Location: Starlight Observatory, 38.4029°N, 85.8936°W

Satellite Date Start Highest point End Downlink Frequencies (MHz)
Time Altitude Azimuth
NUDT-PHONESAT 16 Oct 19:44:46 19:48:17 39° 262° (W) 19:51:48 437.300
PCSat 16 Oct 19:56:52 20:02:17 72° 245° (WSW) 20:07:39 145.827
STRAND 1 16 Oct 20:01:44 20:04:39 15° 92° (E) 20:07:33 437.568
XW-2C 16 Oct 20:03:39 20:06:11 17° 266° (W) 20:08:42 145.795 - 145.815
YUBILEINY 16 Oct 20:05:30 20:08:03 11° 58° (ENE) 20:10:36 435.215
ZACube-1 16 Oct 20:06:05 20:08:47 16° 65° (ENE) 20:11:29 437.345
AAUSAT CUBESAT 2 16 Oct 20:08:33 20:11:47 23° 69° (ENE) 20:15:01 437.432
UWE-3 16 Oct 20:16:50 20:21:03 37° 72° (ENE) 20:25:21 435.000/436.395/437.385
CUTE-I 16 Oct 20:20:43 20:24:52 23° 266° (W) 20:29:04 437.470
STARS 16 Oct 20:25:41 20:29:21 26° 292° (WNW) 20:33:00 437.465
nSIGHT-1 16 Oct 20:34:22 20:36:14 15° 231° (SW) 20:38:06 .
HO-68 16 Oct 20:39:29 20:46:24 53° 259° (W) 20:53:25 435.675
Oscar 11 16 Oct 20:49:37 20:53:13 26° 70° (ENE) 20:56:49 .
CUTE 1.7 + AOD 2 16 Oct 20:50:55 20:54:34 28° 264° (W) 20:58:13 437.475
XW-2A 16 Oct 20:52:09 20:55:33 64° 259° (W) 20:58:58 145.665 - 145.685
ISS 16 Oct 20:57:38 20:58:09 10° 233° (SW) 20:58:40 437.550
CUBEBUG 2 16 Oct 21:05:59 21:10:13 37° 263° (W) 21:14:36 437.445
SEEDS 16 Oct 21:06:25 21:10:05 30° 263° (W) 21:13:48 437.485
FO-29 16 Oct 21:13:42 21:18:06 17° 92° (E) 21:22:44 435.910
AO-73 16 Oct 21:20:36 21:25:09 87° 76° (ENE) 21:29:45 145.935
STRAND 1 16 Oct 21:39:06 21:44:10 59° 287° (WNW) 21:49:14 437.568
ZACube-1 16 Oct 21:40:10 21:44:35 50° 261° (W) 21:49:04 437.345
AAUSAT CUBESAT 2 16 Oct 21:43:40 21:47:06 25° 264° (W) 21:50:32 437.432
UWE-3 16 Oct 21:54:12 21:57:35 20° 267° (W) 22:01:01 435.000/436.395/437.385
O/OREOS (USA 219) 16 Oct 21:57:13 22:01:20 35° 104° (ESE) 22:05:28 437.305
YUBILEINY 16 Oct 21:57:58 22:06:43 66° 80° (E) 22:15:28 435.215
DELFI C3 16 Oct 22:15:24 22:19:10 49° 74° (ENE) 22:22:57 145.870
Oscar 11 16 Oct 22:25:40 22:29:15 25° 265° (W) 22:32:50 .
Max Valier Satellite 16 Oct 22:28:13 22:31:49 49° 75° (ENE) 22:35:27 145.860
EO-88 16 Oct 22:28:27 22:31:46 34° 73° (ENE) 22:35:07 145.990 - 145.960
UNISAT 6 16 Oct 22:35:56 22:39:02 18° 92° (E) 22:42:05 437.425
BEESAT 3 16 Oct 22:50:09 22:53:56 40° 55° (NE) 22:57:37 437.485
TIGRISAT 16 Oct 22:51:26 22:55:10 24° 94° (E) 22:58:49 435.000
FO-29 16 Oct 22:56:46 23:03:32 80° 285° (WNW) 23:11:04 435.910
AO-85 16 Oct 23:00:14 23:03:13 17° 47° (NE) 23:06:19 145.980
PRISM 16 Oct 23:22:22 23:25:35 22° 96° (E) 23:28:48 437.425
LO-87 16 Oct 23:31:53 23:34:51 25° 71° (ENE) 23:37:51 145.935 - 145.965
O/OREOS (USA 219) 16 Oct 23:37:16 23:40:48 22° 301° (WNW) 23:44:22 437.305
ESTCUBE 1 16 Oct 23:48:16 23:52:14 32° 71° (ENE) 23:56:14 437.505/2401.250
DELFI C3 16 Oct 23:53:27 23:54:10 10° 269° (W) 23:54:53 145.870
YUBILEINY 16 Oct 23:56:04 00:02:44 25° 278° (W) 00:09:25 435.215
BEESAT 2 17 Oct 00:00:39 00:04:42 72° 58° (ENE) 00:08:39 435.950
EO-88 17 Oct 00:03:48 00:05:31 13° 267° (W) 00:07:15 145.990 - 145.960
UNISAT 6 17 Oct 00:11:32 00:15:54 41° 288° (WNW) 00:20:09 437.425
TIGRISAT 17 Oct 00:27:46 00:31:50 31° 290° (WNW) 00:35:49 435.000
BEESAT 3 17 Oct 00:28:50 00:31:05 15° 251° (WSW) 00:33:20 437.485
POLYITAN 1 17 Oct 00:29:03 00:30:08 11° 91° (E) 00:31:13 437.675
AO-85 17 Oct 00:39:23 00:43:57 64° 242° (WSW) 00:48:52 145.980
FO-29 17 Oct 00:44:23 00:47:44 14° 300° (WNW) 00:51:15 435.910
QB50P2 17 Oct 00:47:06 00:50:20 21° 94° (E) 00:53:32 145.880/145.840
AIST 2D 17 Oct 00:52:19 00:55:46 66° 101° (E) 00:59:12 435.315
NANOSAT C BR1 17 Oct 00:54:42 00:57:51 20° 94° (E) 01:00:58 145.865
PRISM 17 Oct 00:57:21 01:00:48 27° 290° (WNW) 01:04:16 437.425
LO-87 17 Oct 01:05:50 01:08:14 17° 266° (W) 01:10:39 145.935 - 145.965
DUCHIFAT 1 17 Oct 01:07:32 01:11:01 24° 96° (E) 01:14:27 145.980
RS-15 17 Oct 01:07:49 01:18:21 36° 105° (ESE) 01:28:55 29.354- 29.394
DX 1 17 Oct 01:17:52 01:19:44 13° 63° (ENE) 01:21:34 434.975-435.025
SPROUT 17 Oct 01:18:21 01:22:36 77° 77° (ENE) 01:26:54 437.525
ESTCUBE 1 17 Oct 01:25:36 01:29:03 22° 265° (W) 01:32:31 437.505/2401.250
VELOX 1 17 Oct 01:31:53 01:36:14 76° 75° (ENE) 01:40:38 145.980
BUGSAT 1 17 Oct 01:33:23 01:34:42 11° 91° (E) 01:36:00 437.445
UKube-1 17 Oct 01:49:21 01:52:12 18° 66° (ENE) 01:55:05 .
EO-79 17 Oct 01:58:27 02:02:41 63° 285° (WNW) 02:06:52 145.935-145.965
POLYITAN 1 17 Oct 02:02:02 02:06:14 57° 286° (WNW) 02:10:24 437.675
QB50P2 17 Oct 02:22:23 02:26:07 30° 289° (WNW) 02:29:49 145.880/145.840
NANOSAT C BR1 17 Oct 02:29:49 02:33:33 31° 290° (WNW) 02:37:17 145.865
DUCHIFAT 1 17 Oct 02:43:04 02:46:34 25° 291° (WNW) 02:50:03 145.980
50 SAT 17 Oct 02:45:25 02:48:29 39° 261° (W) 02:51:35 437.505
DX 1 17 Oct 02:51:09 02:55:23 56° 259° (W) 02:59:40 434.975-435.025
M-CUBED/EXP-1 PRIME 17 Oct 02:55:08 02:58:18 30° 104° (ESE) 03:01:38 437.505
ITUPSAT 1 17 Oct 02:58:01 03:00:21 14° 62° (ENE) 03:02:42 437.325
MOZHAYETS 4 17 Oct 03:05:49 03:08:47 17° 65° (ENE) 03:11:45
BUGSAT 1 17 Oct 03:06:13 03:10:22 54° 286° (WNW) 03:14:27 437.445
Gurwin Techsat 1B 17 Oct 03:12:52 03:18:00 47° 100° (E) 03:23:07 435.225
Oscar 19 17 Oct 03:13:14 03:18:21 71° 102° (ESE) 03:23:27 437.125/150
BEESAT 17 Oct 03:14:56 03:18:26 21° 66° (ENE) 03:21:56 436.000
RS-15 17 Oct 03:17:50 03:30:03 68° 305° (NW) 03:42:20 29.354- 29.394
UKube-1 17 Oct 03:23:55 03:27:55 38° 261° (W) 03:31:56 .
AO-7 17 Oct 04:21:54 04:29:05 32° 97° (E) 04:36:14 .
M-CUBED/EXP-1 PRIME 17 Oct 04:30:25 04:32:31 15° 296° (WNW) 04:34:42 437.505
ITUPSAT 1 17 Oct 04:32:50 04:37:35 65° 258° (WSW) 04:42:24 437.325
MOZHAYETS 4 17 Oct 04:41:05 04:45:32 46° 261° (W) 04:50:01
CUBESAT XI-V 17 Oct 04:42:02 04:46:16 36° 71° (ENE) 04:50:30 437.345
BEESAT 17 Oct 04:51:24 04:55:54 40° 261° (W) 05:00:24 436.000
Gurwin Techsat 1B 17 Oct 04:53:41 04:57:35 21° 295° (WNW) 05:01:27 435.225
Oscar 19 17 Oct 04:54:32 04:57:02 14° 299° (WNW) 04:59:31 437.125/150
KKS-1 17 Oct 05:01:22 05:04:17 18° 66° (ENE) 05:07:13 437.445
ITAMSAT 1 17 Oct 05:16:25 05:21:38 63° 101° (ESE) 05:26:49 435.822/435.867
NO-84 17 Oct 05:18:34 05:22:52 76° 134° (SE) 05:27:06 435.350 FM
RS-15 17 Oct 05:35:54 05:45:28 25° 333° (NNW) 05:54:58 29.354- 29.394
STARS 17 Oct 05:44:50 05:48:04 20° 67° (ENE) 05:51:18 437.465
DOVE 4 17 Oct 05:59:49 06:03:41 23° 94° (E) 06:07:41 437.250
AO-7 17 Oct 06:14:05 06:22:06 55° 294° (WNW) 06:30:05 .
CUBESAT XI-V 17 Oct 06:20:18 06:23:43 20° 266° (W) 06:27:07 437.345
KKS-1 17 Oct 06:36:20 06:40:29 41° 261° (W) 06:44:42 437.445
LilacSat-2 17 Oct 06:48:50 06:50:46 14° 93° (E) 06:52:41 437.200
XW-2F 17 Oct 06:52:06 06:53:46 13° 92° (E) 06:55:26 145.980 - 146.000
ITAMSAT 1 17 Oct 06:57:27 07:00:32 16° 298° (WNW) 07:03:36 435.822/435.867
NO-84 17 Oct 06:57:29 07:00:41 20° 330° (NNW) 07:03:48 435.350 FM
KAITUO 1B 17 Oct 06:57:33 06:58:36 11° 92° (E) 06:59:40 145.475/437.950
CUTE-I 17 Oct 06:59:07 07:02:44 18° 93° (E) 07:06:21 437.470
XW-2D 17 Oct 07:00:31 07:03:10 18° 94° (E) 07:05:48 145.860 - 145.880
XW-2B 17 Oct 07:13:25 07:16:34 25° 96° (E) 07:19:42 145.730 - 145.750
STRAND 1 17 Oct 07:16:02 07:19:39 20° 64° (ENE) 07:23:16 437.568
NUDT-PHONESAT 17 Oct 07:16:45 07:19:25 19° 95° (E) 07:22:04 437.300
STARS 17 Oct 07:20:11 07:24:08 33° 262° (W) 07:28:09 437.465
XW-2C 17 Oct 07:36:01 07:39:41 52° 99° (E) 07:43:19 145.795 - 145.815
DOVE 4 17 Oct 07:36:51 07:41:24 39° 288° (WNW) 07:46:08 437.250
SO-50 17 Oct 07:50:51 07:54:18 22° 111° (ESE) 07:57:46 436.795
RS-15 17 Oct 07:56:20 08:04:18 19° 10° (N) 08:12:03 29.354- 29.394
O/OREOS (USA 219) 17 Oct 08:08:16 08:12:48 53° 66° (ENE) 08:17:16 437.305
HO-68 17 Oct 08:08:54 08:15:20 34° 97° (E) 08:21:41 435.675
AO-7 17 Oct 08:10:51 08:13:00 11° 315° (NW) 08:15:09 .
LilacSat-2 17 Oct 08:21:42 08:25:09 34° 287° (WNW) 08:28:34 437.200
XW-2F 17 Oct 08:24:35 08:28:01 36° 287° (WNW) 08:31:26 145.980 - 146.000
KAITUO 1B 17 Oct 08:29:18 08:32:46 40° 286° (WNW) 08:36:13 145.475/437.950
XW-2D 17 Oct 08:34:12 08:37:19 25° 289° (WNW) 08:40:25 145.860 - 145.880
CUTE 1.7 + AOD 2 17 Oct 08:36:23 08:40:30 53° 99° (E) 08:44:35 437.475
CUTE-I 17 Oct 08:37:50 08:43:03 53° 288° (WNW) 08:48:15 437.470
XW-2B 17 Oct 08:47:54 08:50:33 19° 291° (WNW) 08:53:12 145.730 - 145.750
NUDT-PHONESAT 17 Oct 08:50:15 08:53:12 23° 290° (WNW) 08:56:08 437.300
SEEDS 17 Oct 08:50:54 08:54:56 46° 99° (E) 08:58:56 437.485
STRAND 1 17 Oct 08:53:30 08:58:25 48° 260° (W) 09:03:24 437.568
PCSat 17 Oct 08:55:38 08:59:12 18° 105° (ESE) 09:02:46 145.827
CUBEBUG 2 17 Oct 08:57:55 09:02:31 54° 99° (E) 09:06:57 437.445
YUBILEINY 17 Oct 09:06:30 09:09:58 13° 76° (ENE) 09:13:26 435.215
FO-29 17 Oct 09:09:10 09:13:45 33° 68° (ENE) 09:18:34 435.910
AO-73 17 Oct 09:11:12 09:14:15 18° 93° (E) 09:17:14 145.935
AAUSAT CUBESAT 2 17 Oct 09:26:10 09:30:11 51° 99° (E) 09:34:11 437.432
ZACube-1 17 Oct 09:30:10 09:34:13 34° 97° (E) 09:38:07 437.345
SO-50 17 Oct 09:30:23 09:34:31 36° 308° (NW) 09:38:41 436.795
JUGNU 17 Oct 09:30:49 09:32:16 11° 174° (S) 09:33:43 437.505
UNISAT 6 17 Oct 09:33:56 09:36:19 14° 64° (ENE) 09:38:44 437.425
UWE-3 17 Oct 09:43:53 09:48:27 83° 284° (WNW) 09:52:51 435.000/436.395/437.385
XW-2A 17 Oct 09:47:42 09:50:56 47° 285° (WNW) 09:54:08 145.665 - 145.685
TIGRISAT 17 Oct 09:48:53 09:52:03 19° 66° (ENE) 09:55:15 435.000
O/OREOS (USA 219) 17 Oct 09:49:26 09:51:40 14° 262° (W) 09:53:55 437.305
HO-68 17 Oct 09:56:22 10:03:05 44° 294° (WNW) 10:09:48 435.675
RS-15 17 Oct 10:10:19 10:21:29 41° 43° (NE) 10:32:02 29.354- 29.394
PRISM 17 Oct 10:11:21 10:13:18 13° 65° (ENE) 10:15:15 437.425
Oscar 11 17 Oct 10:13:18 10:17:35 65° 101° (E) 10:21:50 .
CUTE 1.7 + AOD 2 17 Oct 10:14:05 10:15:51 12° 295° (WNW) 10:17:35 437.475
SEEDS 17 Oct 10:28:04 10:30:11 14° 294° (WNW) 10:32:17 437.485
CUBEBUG 2 17 Oct 10:36:00 10:38:36 15° 296° (WNW) 10:41:09 437.445
PCSat 17 Oct 10:36:46 10:42:05 57° 301° (WNW) 10:47:26 145.827
AO-73 17 Oct 10:46:35 10:50:34 35° 289° (WNW) 10:54:27 145.935
FO-29 17 Oct 10:54:41 10:58:56 26° 266° (W) 11:03:22 435.910
YUBILEINY 17 Oct 10:56:32 11:05:12 79° 94° (E) 11:13:55 435.215
Tancredo 1 17 Oct 11:00:29 11:02:01 21° 327° (NNW) 11:03:34 437.200
AAUSAT CUBESAT 2 17 Oct 11:03:27 11:05:10 12° 295° (WNW) 11:06:53 437.432
ZACube-1 17 Oct 11:07:03 11:10:12 20° 293° (WNW) 11:13:18 437.345
UNISAT 6 17 Oct 11:07:57 11:12:28 58° 260° (W) 11:17:06 437.425
JUGNU 17 Oct 11:18:42 11:20:21 11° 185° (S) 11:21:58 437.505
TIGRISAT 17 Oct 11:24:00 11:28:21 42° 262° (W) 11:32:49 435.000
AIST 2D 17 Oct 11:25:37 11:28:06 18° 70° (ENE) 11:30:34 435.315
DELFI C3 17 Oct 11:27:52 11:31:49 79° 283° (WNW) 11:35:47 145.870
EO-88 17 Oct 11:31:29 11:35:04 56° 100° (E) 11:38:37 145.990 - 145.960
Max Valier Satellite 17 Oct 11:32:57 11:36:39 87° 101° (ESE) 11:40:18 145.860
nSIGHT-1 17 Oct 11:34:02 11:36:54 31° 134° (SE) 11:39:46 .
QB50P2 17 Oct 11:39:12 11:41:22 14° 65° (ENE) 11:43:32 145.880/145.840
PRISM 17 Oct 11:44:16 11:48:08 45° 260° (W) 11:52:03 437.425
NANOSAT C BR1 17 Oct 11:46:22 11:48:21 13° 64° (ENE) 11:50:20 145.865
Oscar 11 17 Oct 11:52:04 11:53:08 11° 296° (WNW) 11:54:12 .
NO-84 17 Oct 11:54:05 11:57:14 25° 33° (NNE) 12:00:11 435.350 FM
ISS 17 Oct 11:57:32 12:00:41 49° 137° (SE) 12:03:51 437.550
DUCHIFAT 1 17 Oct 11:58:32 12:01:05 16° 66° (ENE) 12:03:37 145.980
RS-15 17 Oct 12:22:58 12:34:33 63° 247° (WSW) 12:45:29 29.354- 29.394
LO-87 17 Oct 12:32:41 12:36:06 37° 98° (E) 12:39:29 145.935 - 145.965
EO-79 17 Oct 12:48:41 12:52:55 77° 76° (ENE) 12:57:12 145.935-145.965
POLYITAN 1 17 Oct 12:52:21 12:56:37 84° 80° (E) 13:00:56 437.675
Oscar 19 17 Oct 12:54:03 12:55:04 11° 60° (ENE) 12:56:06 437.125/150
YUBILEINY 17 Oct 12:56:50 13:02:57 21° 294° (WNW) 13:09:08 435.215
AIST 2D 17 Oct 12:58:17 13:01:07 22° 265° (W) 13:03:55 435.315
SPROUT 17 Oct 13:06:49 13:09:11 14° 92° (E) 13:11:33 437.525
nSIGHT-1 17 Oct 13:10:25 13:13:11 26° 330° (NNW) 13:15:57 .
QB50P2 17 Oct 13:12:33 13:16:41 49° 261° (W) 13:20:51 145.880/145.840
ESTCUBE 1 17 Oct 13:18:04 13:22:34 87° 103° (ESE) 13:27:02 437.505/2401.250
NANOSAT C BR1 17 Oct 13:19:26 13:23:34 52° 260° (W) 13:27:45 145.865
VELOX 1 17 Oct 13:24:27 13:27:09 16° 93° (E) 13:29:51 145.980
NO-84 17 Oct 13:31:25 13:34:39 32° 232° (SW) 13:37:37 435.350 FM
DUCHIFAT 1 17 Oct 13:32:21 13:36:21 42° 261° (W) 13:40:24 145.980
SRMSAT 17 Oct 13:34:35 13:36:51 12° 181° (S) 13:39:07 437.500
ISS 17 Oct 13:34:47 13:37:20 21° 333° (NNW) 13:39:54 437.550
M-CUBED/EXP-1 PRIME 17 Oct 13:39:59 13:43:01 28° 68° (ENE) 13:45:56 437.505
BEESAT 2 17 Oct 13:51:15 13:53:55 17° 110° (ESE) 13:56:36 435.950
BUGSAT 1 17 Oct 13:53:39 13:57:47 81° 78° (ENE) 14:02:02 437.445
LO-87 17 Oct 14:07:34 14:09:08 12° 293° (WNW) 14:10:42 145.935 - 145.965
BEESAT 3 17 Oct 14:14:48 14:18:47 67° 303° (WNW) 14:22:47 437.485
Oscar 19 17 Oct 14:28:23 14:33:34 88° 74° (ENE) 14:38:46 437.125/150
Gurwin Techsat 1B 17 Oct 14:32:21 14:37:35 66° 74° (ENE) 14:42:52 435.225
DX 1 17 Oct 14:40:58 14:44:40 26° 96° (E) 14:48:20 434.975-435.025
SPROUT 17 Oct 14:41:10 14:45:16 44° 287° (WNW) 14:49:20 437.525
RS-15 17 Oct 14:42:39 14:44:14 10° 267° (W) 14:45:50 29.354- 29.394
AO-85 17 Oct 14:52:48 14:56:37 58° 117° (ESE) 15:00:28 145.980
ITAMSAT 1 17 Oct 14:59:05 14:59:24 10° 58° (ENE) 14:59:42 435.822/435.867
VELOX 1 17 Oct 14:59:34 15:03:46 43° 288° (WNW) 15:07:57 145.980
UKube-1 17 Oct 15:12:00 15:16:01 36° 99° (E) 15:19:59 .
M-CUBED/EXP-1 PRIME 17 Oct 15:15:39 15:17:29 14° 260° (W) 15:19:17 437.505
AO-7 17 Oct 15:19:16 15:26:46 40° 62° (ENE) 15:34:16 .
BEESAT 2 17 Oct 15:27:36 15:31:20 37° 306° (NW) 15:35:07 435.950
50 SAT 17 Oct 15:37:50 15:40:54 36° 287° (WNW) 15:43:57 437.505
Gurwin Techsat 1B 17 Oct 16:15:15 16:17:58 14° 269° (W) 16:20:40 435.225
DX 1 17 Oct 16:17:08 16:20:43 25° 292° (WNW) 16:24:19 434.975-435.025
SO-50 17 Oct 16:23:04 16:26:05 17° 45° (NE) 16:29:05 436.795
ITAMSAT 1 17 Oct 16:32:48 16:37:58 83° 77° (ENE) 16:43:13 435.822/435.867
ITUPSAT 1 17 Oct 16:34:56 16:39:20 35° 98° (E) 16:43:42 437.325
AO-85 17 Oct 16:35:29 16:37:23 13° 316° (NW) 16:39:19 145.980
MOZHAYETS 4 17 Oct 16:37:23 16:41:47 44° 99° (E) 16:46:07
UKube-1 17 Oct 16:48:45 16:51:44 19° 294° (WNW) 16:54:43 .
ISS 17 Oct 16:51:40 16:52:35 11° 14° (NNE) 16:53:30 437.550
BEESAT 17 Oct 16:52:32 16:57:15 56° 101° (E) 17:01:55 436.000
DOVE 4 17 Oct 17:05:14 17:07:44 16° 66° (ENE) 17:10:16 437.250
Tancredo 1 17 Oct 17:10:13 17:12:01 76° 221° (SW) 17:13:47 437.200
AO-7 17 Oct 17:11:31 17:19:21 45° 259° (W) 17:27:13 .
PCSat 17 Oct 17:44:31 17:47:10 13° 43° (NE) 17:49:47 145.827
XW-2B 17 Oct 17:55:06 17:56:12 11° 66° (ENE) 17:57:18 145.730 - 145.750
nSIGHT-1 17 Oct 18:02:16 18:05:04 26° 30° (NNE) 18:07:51 .
SO-50 17 Oct 18:02:21 18:06:56 63° 242° (WSW) 18:11:32 436.795
ITUPSAT 1 17 Oct 18:13:12 18:16:56 23° 293° (WNW) 18:20:38 437.325
MOZHAYETS 4 17 Oct 18:15:34 18:18:33 17° 294° (WNW) 18:21:30
XW-2C 17 Oct 18:16:11 18:19:03 21° 70° (ENE) 18:21:55 145.795 - 145.815
CUBESAT XI-V 17 Oct 18:16:38 18:21:14 74° 284° (WNW) 18:25:48 437.345
ITAMSAT 1 17 Oct 18:17:41 18:18:01 10° 270° (W) 18:18:23 435.822/435.867
CUTE-I 17 Oct 18:19:16 18:23:37 26° 66° (ENE) 18:27:59 437.470
ISS 17 Oct 18:26:42 18:29:48 37° 33° (NNE) 18:32:52 437.550
KKS-1 17 Oct 18:28:22 18:32:36 40° 99° (E) 18:36:48 437.445
BEESAT 17 Oct 18:31:47 18:34:31 15° 297° (WNW) 18:37:13 436.000
HO-68 17 Oct 18:37:09 18:42:24 23° 59° (ENE) 18:47:40 435.675
DOVE 4 17 Oct 18:41:11 18:45:04 39° 262° (W) 18:49:04 437.250
LilacSat-2 17 Oct 19:01:10 19:05:01 85° 82° (E) 19:08:52 437.200
XW-2F 17 Oct 19:03:00 19:06:47 77° 76° (ENE) 19:10:34 145.980 - 146.000
KAITUO 1B 17 Oct 19:06:56 19:10:39 66° 76° (ENE) 19:14:22 145.475/437.950
STARS 17 Oct 19:10:21 19:14:38 46° 99° (E) 19:18:53 437.465
XW-2D 17 Oct 19:12:45 19:16:33 70° 259° (W) 19:20:22 145.860 - 145.880
PCSat 17 Oct 19:25:57 19:31:25 82° 64° (ENE) 19:36:49 145.827
XW-2B 17 Oct 19:26:14 19:29:55 48° 261° (W) 19:33:38 145.730 - 145.750
NUDT-PHONESAT 17 Oct 19:26:34 19:30:17 70° 259° (W) 19:34:00 437.300
CUTE 1.7 + AOD 2 17 Oct 19:27:29 19:31:12 30° 71° (ENE) 19:34:55 437.475
